FREGAT DEB, 45831

Orbit data source: Space-Track

FREGAT DEB, 45831 is space debris in LEO originally from a launch on Mon, 18 Jul 2011 UTC launched from the Tyuratam Missile And Space Complex (TTMTR). Debris objects in space refer to the collection of defunct objects orbiting the Earth. Examples of debris include non-operational satellites, rocket bodies, and fragments generated from explosions, collisions, or faulty payload assembly.

Loading next visibility...
Identifier
45831, 2011-037BR
Orbit
LEO
Country
Flag of CISCIS
Related business
Manufacturer
Lavochkin
Mission
Spacecraft
Bus & Motor
Unknown
Mass
Unknown
Launch date (UTC)
2011-07-18 (15 years ago)
Launch vehicle
Unknown
Launch site
Tyuratam Missile And Space Complex (TTMTR)
Object type
Payload
Rocket body
Debris
Shape & HBR
Unknown shape, 0.1 m
Radar Cross Section
Medium (>0.1 m² and <1 m²)

Expand to show TLE details & history
Last TLE update: 1 day ago

TLE from 1 day ago
0 FREGAT DEB
1 45831U 11037BR  26208.58054106  .00004031  00000-0  20954-2 0  9990
2 45831  51.4366 289.6197 1630814 143.4925 228.9078 11.56207353258577
Epoch: 2026-07-27T13:55Z
TLE epoch observation values (Epoch: 2026-07-27T13:55:58.747Z)
Latitude
-0.00003°
Longitude
135.36282°
Altitude
2,875.727 km
Speed
6.158 km/s
True Right ascension
19h 18m 28s
True Declination
0° 00' 00"
Sunlit
Object was in full shadow at epoch
Visualization orbit readout
Latitude
Unknown
Longitude
Unknown
Altitude
Unknown
Speed
Unknown
Apparent Right ascension
Unknown
Apparent Declination
Unknown
Sunlit
N/A
Visualization observer readout
Local Sidereal Time
10:26:22
Azimuth
Unknown
Elevation
Unknown
Doppler factor
Unknown
Orbital elements
Apogee altitude
3,230.887 km
Perigee altitude
536.229 km
Semi-major axis
8,261.695 km
Eccentricity
0.16308
Inclination
51.4366°
RAAN
289.6197°
Arg. of periapsis
143.4925°
True anomaly
216.5878°
Mean anomaly
228.9078°
Eccentric anomaly
222.58496°
Mean motion
2.89028 °/min
Orbital period
124.56 mins
BSTAR
0.0020954
Loading maneuver chart data...
Computing Atmospheric mass density...
Loading historical data...
Loading historical data...
Loading historical data...
Loading historical data...
Loading historical data...
Loading historical data...
Loading historical data...

Documentation

Showing up to 5 results
|